| time (UTC) | temp C | wind direction | speed KPH | gust KPH | rain 1hr cm | rain 24hr cm | rain mn cm | humidity % | barometer mb |
| 20260507153050 | 14 | 0 | 0.0 | 1.6 | 0.00 | 0.00 | 0.00 | 57 | 1020.8 |
| 20260507151552 | 14 | 171 | 0.0 | 1.6 | 0.00 | 0.00 | 0.00 | 56 | 1020.8 |
| 20260507150054 | 15 | 0 | 0.0 | 3.2 | 0.00 | 0.00 | 0.00 | 55 | 1020.9 |
| 20260507144608 | 15 | 196 | 0.0 | 3.2 | 0.00 | 0.00 | 0.00 | 56 | 1020.9 |
| 20260507143101 | 15 | 254 | 0.0 | 4.8 | 0.00 | 0.00 | 0.00 | 56 | 1021.0 |
| 20260507141558 | 15 | 0 | 0.0 | 4.8 | 0.00 | 0.00 | 0.00 | 55 | 1021.1 |
| 20260507140049 | 15 | 146 | 1.6 | 3.2 | 0.00 | 0.00 | 0.00 | 55 | 1021.2 |
| 20260507134554 | 16 | 134 | 0.0 | 6.4 | 0.00 | 0.00 | 0.00 | 50 | 1021.2 |
| 20260507133125 | 16 | 196 | 1.6 | 6.4 | 0.00 | 0.00 | 0.00 | 50 | 1021.1 |
| 20260507131552 | 17 | 51 | 1.6 | 8.0 | 0.00 | 0.00 | 0.00 | 49 | 1021.1 |
| 20260507124556 | 16 | 108 | 0.0 | 8.0 | 0.00 | 0.00 | 0.00 | 46 | 1021.3 |
| 20260507123053 | 16 | 170 | 1.6 | 8.0 | 0.00 | 0.00 | 0.00 | 50 | 1021.3 |
| 20260507121553 | 16 | 306 | 1.6 | 6.4 | 0.00 | 0.00 | 0.00 | 48 | 1021.3 |
| 20260507120052 | 16 | 320 | 1.6 | 6.4 | 0.00 | 0.00 | 0.00 | 51 | 1021.5 |
| 20260507114600 | 17 | 218 | 1.6 | 8.0 | 0.00 | 0.00 | 0.00 | 50 | 1021.6 |
| 20260507113051 | 16 | 0 | 0.0 | 9.7 | 0.00 | 0.00 | 0.00 | 51 | 1021.7 |
| 20260507111555 | 16 | 19 | 0.0 | 8.0 | 0.00 | 0.00 | 0.00 | 57 | 1021.7 |
| 20260507110054 | 15 | 228 | 1.6 | 6.4 | 0.00 | 0.00 | 0.00 | 61 | 1021.9 |
| 20260507104552 | 14 | 0 | 0.0 | 6.4 | 0.00 | 0.00 | 0.00 | 65 | 1022.0 |
| 20260507103056 | 13 | 0 | 1.6 | 6.4 | 0.00 | 0.00 | 0.00 | 71 | 1021.9 |
| 20260507101550 | 12 | 51 | 0.0 | 6.4 | 0.00 | 0.00 | 0.00 | 70 | 1022.1 |
| 20260507100057 | 12 | 0 | 0.0 | 4.8 | 0.00 | 0.00 | 0.00 | 73 | 1022.1 |
| 20260507094559 | 11 | 171 | 0.0 | 3.2 | 0.00 | 0.00 | 0.00 | 75 | 1022.3 |
| 20260507093052 | 11 | 0 | 0.0 | 3.2 | 0.00 | 0.00 | 0.00 | 75 | 1022.4 |
| 20260507091554 | 11 | 13 | 0.0 | 4.8 | 0.00 | 0.00 | 0.00 | 75 | 1022.2 |
| 20260507090054 | 10 | 26 | 0.0 | 1.6 | 0.00 | 0.00 | 0.00 | 76 | 1022.3 |
| 20260507084557 | 10 | 0 | 0.0 | 3.2 | 0.00 | 0.00 | 0.00 | 79 | 1022.3 |
| 20260507083053 | 9 | 0 | 0.0 | 3.2 | 0.00 | 0.00 | 0.00 | 80 | 1022.3 |
| 20260507081551 | 8 | 0 | 0.0 | 3.2 | 0.00 | 0.00 | 0.00 | 81 | 1022.2 |
| 20260507080056 | 8 | 0 | 0.0 | 3.2 | 0.00 | 0.00 | 0.00 | 82 | 1022.1 |
| 20260507074557 | 8 | 0 | 0.0 | 1.6 | 0.00 | 0.00 | 0.00 | 83 | 1022.0 |
| 20260507073102 | 8 | 0 | 0.0 | 1.6 | 0.00 | 0.00 | 0.00 | 84 | 1022.0 |
| 20260507071553 | 8 | 0 | 0.0 | 3.2 | 0.00 | 0.00 | 0.00 | 84 | 1022.0 |
| 20260507070057 | 7 | 0 | 0.0 | 1.6 | 0.00 | 0.00 | 0.00 | 85 | 1022.0 |
| 20260507064557 | 7 | 0 | 0.0 | 0.0 | 0.00 | 0.00 | 0.00 | 86 | 1021.9 |
| 20260507063100 | 7 | 0 | 0.0 | 1.6 | 0.00 | 0.00 | 0.00 | 86 | 1021.8 |
| 20260507061549 | 7 | 0 | 0.0 | 1.6 | 0.00 | 0.00 | 0.00 | 87 | 1021.9 |
| 20260507060056 | 7 | 0 | 0.0 | 0.0 | 0.00 | 0.00 | 0.00 | 87 | 1021.7 |
| 20260507054551 | 6 | 0 | 0.0 | 1.6 | 0.00 | 0.00 | 0.00 | 87 | 1021.8 |
| 20260507053115 | 6 | 0 | 0.0 | 1.6 | 0.00 | 0.00 | 0.00 | 88 | 1021.6 |
| 20260507051555 | 6 | 0 | 0.0 | 0.0 | 0.00 | 0.00 | 0.00 | 88 | 1021.5 |
| 20260507050051 | 6 | 0 | 0.0 | 3.2 | 0.00 | 0.00 | 0.00 | 88 | 1021.5 |
| 20260507044603 | 6 | 248 | 0.0 | 1.6 | 0.00 | 0.00 | 0.00 | 89 | 1021.3 |
| 20260507043050 | 6 | 127 | 0.0 | 3.2 | 0.00 | 0.00 | 0.00 | 88 | 1021.3 |
| 20260507041552 | 6 | 0 | 0.0 | 1.6 | 0.00 | 0.00 | 0.00 | 88 | 1021.2 |
| 20260507040050 | 6 | 0 | 0.0 | 0.0 | 0.00 | 0.00 | 0.00 | 88 | 1021.3 |
| 20260507034554 | 6 | 0 | 0.0 | 1.6 | 0.00 | 0.00 | 0.00 | 88 | 1021.3 |
| 20260507033101 | 6 | 0 | 0.0 | 0.0 | 0.00 | 0.00 | 0.00 | 88 | 1021.3 |
| 20260507031600 | 6 | 0 | 0.0 | 1.6 | 0.00 | 0.00 | 0.00 | 88 | 1021.4 |
| 20260507030108 | 6 | 0 | 0.0 | 3.2 | 0.00 | 0.00 | 0.00 | 88 | 1021.4 |
| 20260507024606 | 6 | 52 | 0.0 | 3.2 | 0.00 | 0.00 | 0.00 | 88 | 1021.5 |
| 20260507023051 | 6 | 0 | 0.0 | 3.2 | 0.00 | 0.00 | 0.00 | 88 | 1021.5 |
| 20260507021558 | 6 | 24 | 0.0 | 3.2 | 0.00 | 0.00 | 0.00 | 88 | 1021.5 |
| 20260507020101 | 6 | 0 | 0.0 | 1.6 | 0.00 | 0.00 | 0.00 | 88 | 1021.5 |
| 20260507014604 | 6 | 0 | 0.0 | 1.6 | 0.00 | 0.00 | 0.00 | 87 | 1021.5 |
| 20260507013100 | 6 | 0 | 0.0 | 3.2 | 0.00 | 0.00 | 0.00 | 87 | 1021.5 |
| 20260507011556 | 6 | 0 | 0.0 | 0.0 | 0.00 | 0.00 | 0.00 | 87 | 1021.5 |
| 20260507010049 | 6 | 0 | 0.0 | 3.2 | 0.00 | 0.00 | 0.00 | 86 | 1021.6 |
| 20260507004554 | 6 | 0 | 0.0 | 1.6 | 0.00 | 0.00 | 0.00 | 86 | 1021.5 |
| 20260507003051 | 6 | 0 | 0.0 | 4.8 | 0.00 | 0.00 | 0.00 | 86 | 1021.6 |
| 20260507001552 | 6 | 341 | 0.0 | 3.2 | 0.00 | 0.00 | 0.00 | 86 | 1021.7 |
| 20260507000053 | 6 | 0 | 0.0 | 3.2 | 0.00 | 0.00 | 0.00 | 85 | 1021.7 |
| 20260506234558 | 6 | 0 | 0.0 | 1.6 | 0.00 | 0.00 | 0.00 | 84 | 1021.6 |
| 20260506233052 | 7 | 0 | 0.0 | 3.2 | 0.00 | 0.00 | 0.00 | 84 | 1021.7 |
| 20260506231555 | 7 | 13 | 0.0 | 3.2 | 0.00 | 0.00 | 0.00 | 83 | 1021.7 |
| 20260506230052 | 7 | 28 | 0.0 | 4.8 | 0.00 | 0.00 | 0.00 | 83 | 1021.6 |
| 20260506224550 | 7 | 0 | 0.0 | 4.8 | 0.00 | 0.00 | 0.00 | 83 | 1021.5 |
| 20260506223050 | 7 | 0 | 0.0 | 3.2 | 0.00 | 0.00 | 0.00 | 82 | 1021.5 |
| 20260506221551 | 7 | 0 | 0.0 | 1.6 | 0.00 | 0.00 | 0.00 | 82 | 1021.4 |
| 20260506220054 | 7 | 0 | 0.0 | 3.2 | 0.00 | 0.00 | 0.00 | 82 | 1021.3 |
| 20260506214550 | 7 | 82 | 0.0 | 4.8 | 0.00 | 0.00 | 0.00 | 80 | 1021.3 |
| 20260506213053 | 7 | 0 | 0.0 | 1.6 | 0.00 | 0.00 | 0.00 | 79 | 1021.2 |
| 20260506211552 | 8 | 0 | 0.0 | 0.0 | 0.00 | 0.00 | 0.00 | 77 | 1021.1 |
| 20260506210054 | 8 | 30 | 0.0 | 3.2 | 0.00 | 0.00 | 0.00 | 76 | 1021.0 |
| 20260506204551 | 8 | 0 | 0.0 | 4.8 | 0.00 | 0.00 | 0.00 | 75 | 1021.0 |
| 20260506203051 | 8 | 0 | 0.0 | 0.0 | 0.00 | 0.00 | 0.00 | 73 | 1020.9 |
| 20260506201555 | 9 | 0 | 0.0 | 1.6 | 0.00 | 0.00 | 0.00 | 72 | 1020.7 |
| 20260506200054 | 10 | 0 | 0.0 | 3.2 | 0.00 | 0.00 | 0.00 | 70 | 1020.5 |
| 20260506194557 | 10 | 0 | 0.0 | 3.2 | 0.00 | 0.00 | 0.00 | 68 | 1020.5 |
| 20260506193048 | 11 | 0 | 0.0 | 12.9 | 0.00 | 0.00 | 0.00 | 64 | 1020.2 |
| 20260506191551 | 11 | 14 | 0.0 | 4.8 | 0.00 | 0.00 | 0.00 | 61 | 1020.2 |
| 20260506190052 | 11 | 14 | 0.0 | 4.8 | 0.00 | 0.00 | 0.00 | 59 | 1020.2 |
| 20260506184555 | 12 | 36 | 0.0 | 14.5 | 0.00 | 0.00 | 0.00 | 56 | 1020.3 |
| 20260506183051 | 12 | 22 | 0.0 | 4.8 | 0.00 | 0.00 | 0.00 | 53 | 1020.2 |
| 20260506181551 | 12 | 70 | 0.0 | 6.4 | 0.00 | 0.00 | 0.00 | 52 | 1020.0 |
| 20260506180051 | 12 | 0 | 0.0 | 12.9 | 0.00 | 0.00 | 0.00 | 52 | 1020.0 |
| 20260506174549 | 13 | 257 | 1.6 | 8.0 | 0.00 | 0.00 | 0.00 | 50 | 1019.9 |
| 20260506173122 | 13 | 32 | 0.0 | 16.1 | 0.00 | 0.00 | 0.00 | 50 | 1019.8 |
| 20260506171556 | 13 | 25 | 1.6 | 16.1 | 0.00 | 0.00 | 0.00 | 47 | 1019.8 |
| 20260506170047 | 14 | 0 | 0.0 | 8.0 | 0.00 | 0.00 | 0.00 | 47 | 1019.8 |
| 20260506164601 | 14 | 0 | 3.2 | 11.3 | 0.00 | 0.00 | 0.00 | 46 | 1019.8 |
| 20260506163106 | 15 | 0 | 0.0 | 4.8 | 0.00 | 0.00 | 0.00 | 46 | 1019.8 |
| 20260506161629 | 15 | 0 | 0.0 | 9.7 | 0.00 | 0.00 | 0.00 | 48 | 1019.8 |
| 20260506160056 | 14 | 0 | 3.2 | 19.3 | 0.00 | 0.00 | 0.00 | 47 | 1019.8 |
| 20260506154552 | 15 | 137 | 1.6 | 11.3 | 0.00 | 0.00 | 0.00 | 46 | 1019.7 |